Regional Weather Roundup
Issued by NWS

Home | Current Version | Previous Version | Text Only | Print | Product List | Glossary Off
Versions: 1 2 3 4 5 6 7 8 9 10 11 12 13 14 15 16 17 18 19 20 21 22 23 24 25 26 27 28 29 30 31 32 33 34 35 36 37 38 39 40 41 42 43 44 45 46 47 48 49 50

000
ASUS45 KBOU 220607
RWRCO

WEATHER ROUNDUP FOR COLORADO
NATIONAL WEATHER SERVICE DENVER/BOULDER CO
1200 AM MDT FRI AUG 22 2014

NOTE: "FAIR" INDICATES FEW OR NO CLOUDS BELOW 12000 FEET WITH NO
SIGNIFICANT WEATHER AND/OR OBSTRUCTIONS TO VISIBILITY.

COZ001>005-013-030-031-220700-
...NORTHWEST COLORADO...

CITY           SKY/WX    TMP DP  RH WIND       PRES   REMARKS
CRAIG          MOCLDY    53  48  83 CALM      30.22F
HAYDEN         MOCLDY    55  45  67 E3        30.24S
MEEKER         PTCLDY    55  45  68 SE3       30.22F
MOUNT WERNER   NOT AVBL
STEAMBOAT SPGS MOCLDY    54  47  79 CALM      30.26S
WALDEN         MOCLDY    50  41  71 CALM      30.34F
$$

COZ006>008-011-220700-
...WEST CENTRAL VALLEYS...

CITY           SKY/WX    TMP DP  RH WIND       PRES   REMARKS
GRAND JUNCTION CLOUDY    64  49  57 E5        30.08F
MONTROSE       CLOUDY    67  46  47 SE8       30.18S
EAGLE          CLOUDY    63  48  59 CALM      30.24F
RIFLE          CLOUDY    63  48  58 CALM      30.14F
DELTA          CLOUDY    71  47  42 N3        30.13S
NUCLA          CLOUDY    66  43  42 CALM      30.20F
$$

COZ017>023-064>068-220700-
...SOUTHWEST COLORADO...

CITY           SKY/WX    TMP DP  RH WIND       PRES   REMARKS
DURANGO        CLOUDY    68  41  37 N8        30.21R
CORTEZ         CLOUDY    67  43  41 VRB6      30.21R
PAGOSA SPRINGS CLOUDY    61  42  49 CALM      30.27F
TELLURIDE      CLOUDY    54  43  66 CALM      30.40R
WOLF CREEK PAS NOT AVBL
$$

COZ009-010-012-014-032>034-037-058>063-220700-
...CENTRAL COLORADO...

CITY           SKY/WX    TMP DP  RH WIND       PRES   REMARKS
ASPEN          MOCLDY    57  40  52 S6        30.29F
BUENA VISTA    CLOUDY    60  40  46 W8        30.30S
COPPER MTN     MOCLDY    48  32  53 S3        30.59S
BERTHOUD PASS  MOCLDY    41  37  87 W8        30.63F
COTTONWOOD PAS CLOUDY    61  30  31 W3        30.44S
GUNNISON       CLOUDY    59  39  47 CALM      30.32S
KREMMLING      CLOUDY    55  45  67 SE3       30.31S
LEADVILLE      MOCLDY    47  39  74 NE5       30.43F
MONARCH PASS   CLOUDY    46  32  57 E7        30.68F
SALIDA         CLOUDY    65  39  37 CALM      30.34S
SUNLIGHT       CLOUDY    50  39  66 CALM      30.51F
WILKERSON PASS NOT AVBL
$$

COZ069>075-220700-
...SAN LUIS VALLEY/SANGRE DE CRISTO MOUNTAINS...

CITY           SKY/WX    TMP DP  RH WIND       PRES   REMARKS
ALAMOSA        MOCLDY    54  41  61 S3        30.25R
LA VETA PASS   NOT AVBL
SAGUACHE       CLOUDY    63  37  39 NW16      30.28S
$$

COZ035-036-038>040-220700-
...NORTHERN COLORADO FRONT RANGE...

CITY           SKY/WX    TMP DP  RH WIND       PRES   REMARKS
DENVER INTL AP CLOUDY    65  55  70 CALM      30.17R
DMNS CITY PARK   N/A     67  54  63 N1        30.15S
AURORA         CLOUDY    64  54  71 SW2       30.18F
FRONT RANGE AP NOT AVBL
ERIE MUNI ARPT CLOUDY    67  53  59 CALM      30.14F
BOULDER MUN AP CLOUDY    64  54  68 CALM      30.15F
CENTENNIAL     CLOUDY    66  50  56 N3        30.18F
BROOMFIELD     CLOUDY    68  50  52 N5        30.18F
FORT COLLINS   CLOUDY    64  55  72 W6        30.16R
LONGMONT       CLOUDY    66  59  77 CALM      30.15F
$$

COZ041-046-047-076>085-087-088-220700-
...PIKES PEAK/PALMER DIVIDE AND SOUTHERN FOOTHILLS...

CITY           SKY/WX    TMP DP  RH WIND       PRES   REMARKS
COLO. SPRINGS  MOCLDY    67  51  56 NW8       30.19F
A. F. ACADEMY  MOCLDY    62  50  64 N8        30.22S
ELLICOTT       MOCLDY    64  50  60 NE9       30.17F
FALCON         CLOUDY    63  49  61 N8        30.25F
FORT CARSON    NOT AVBL
LIMON          MOCLDY    62  52  69 NW6       30.14F
MONUMENT HILL  LGT RAIN  57  50  77 CALM      30.26S
TRINIDAD       CLEAR     67  51  56 CALM      30.11F
$$

COZ042>045-048>051-090-091-220700-
...NORTHEAST COLORADO...

CITY           SKY/WX    TMP DP  RH WIND       PRES   REMARKS
GREELEY ARPT   CLOUDY    64  55  72 NW7       30.14R
AKRON          CLOUDY    66  58  75 NW6       30.10F
BURLINGTON     PTCLDY    66  50  56 NE5       30.05R
WRAY             N/A     73  54  51 NW8       30.04R
STERLING       LGT RAIN  68  64  88 SW5       30.08R
HOLYOKE        NOT AVBL
FORT MORGAN    CLOUDY    67  56  66 NW3       30.11S
$$

COZ086-089-092>099-220700-
...SOUTHEAST COLORADO...

CITY           SKY/WX    TMP DP  RH WIND       PRES   REMARKS
PUEBLO         PTCLDY    75  51  43 N12       30.05R
LA JUNTA       MOCLDY    77  51  40 SE8       30.00S
LAMAR          TSTM      73  62  68 CALM      30.00R
SPRINGFIELD      N/A     67  54  63 CALM      30.04S
$$



USA.gov is the U.S. government's official web portal to all federal, state and local government web resources and services.